LZ2SMX-2 Weather Reports


time (UTC)temp
C
wind
direction
speed
KPH
gust
KPH
rain 1hr
cm
rain 24hr
cm
rain mn
cm
humidity
%
barometer
mb
20260506163308 12 112 4.8 8.0 0.00 0.00 0.00 75 990.0
20260506161307 12 112 3.2 6.4 0.00 0.00 0.00 71 990.0
20260506155308 13 112 3.2 8.0 0.00 0.00 0.00 69 990.0
20260506153308 15 112 6.4 12.9 0.00 0.00 0.00 65 991.0
20260506151340 15 112 6.4 11.3 0.00 0.00 0.00 62 990.0
20260506151308 15 112 6.4 11.3 0.00 0.00 0.00 62 990.0
20260506145308 15 112 4.8 6.4 0.00 0.00 0.00 59 990.0
20260506143308 15 112 3.2 4.8 0.00 0.00 0.00 57 990.0
20260506141340 16 112 3.2 8.0 0.00 0.00 0.00 56 990.0
20260506141308 16 112 3.2 8.0 0.00 0.00 0.00 56 990.0
20260506135307 16 112 3.2 4.8 0.00 0.00 0.00 58 990.0
20260506133309 17 112 3.2 8.0 0.00 0.00 0.00 57 990.0
20260506131308 16 112 4.8 11.3 0.00 0.00 0.00 53 991.0
20260506125308 17 112 4.8 8.0 0.00 0.00 0.00 50 990.0
20260506123308 18 112 3.2 6.4 0.00 0.00 0.00 51 990.0
20260506121307 18 135 3.2 4.8 0.00 0.00 0.00 46 991.0
20260506115307 18 135 3.2 6.4 0.00 0.00 0.00 47 991.0
20260506113308 20 135 3.2 6.4 0.00 0.00 0.00 45 990.0
20260506111308 20 135 4.8 11.3 0.00 0.00 0.00 46 991.0
20260506105308 20 112 3.2 6.4 0.00 0.00 0.00 46 991.0
20260506103309 18 112 4.8 9.7 0.00 0.00 0.00 48 991.0
20260506101308 18 112 4.8 12.9 0.00 0.00 0.00 48 991.0
20260506095308 18 112 3.2 8.0 0.00 0.00 0.00 48 991.0
20260506093307 18 112 4.8 8.0 0.00 0.00 0.00 48 991.0
20260506091308 18 112 4.8 12.9 0.00 0.00 0.00 49 991.0
20260506085307 18 112 4.8 6.4 0.00 0.00 0.00 50 992.0
20260506083308 17 135 1.6 4.8 0.00 0.00 0.00 54 991.0
20260506081339 17 112 3.2 4.8 0.00 0.00 0.00 56 991.0
20260506081307 17 112 3.2 4.8 0.00 0.00 0.00 56 991.0
20260506073309 16 112 1.6 6.4 0.00 0.00 0.00 64 990.0
20260506071308 15 112 4.8 9.7 0.00 0.00 0.00 64 990.0
20260506061308 13 112 3.2 8.0 0.00 0.00 0.00 70 991.0
20260506051308 12 112 0.0 3.2 0.00 0.00 0.00 56 990.0
20260506043309 11 315 0.0 1.6 0.00 0.00 0.00 61 990.0
20260506041308 10 315 0.0 0.0 0.00 0.00 0.00 59 990.0
20260506035309 10 315 0.0 0.0 0.00 0.00 0.00 60 990.0
20260506033308 8 315 0.0 0.0 0.00 0.00 0.00 60 990.0
20260506031309 7 315 0.0 0.0 0.00 0.00 0.00 62 990.0
20260506025308 7 315 0.0 0.0 0.00 0.00 0.00 62 990.0
20260506023309 7 315 0.0 0.0 0.00 0.00 0.00 63 990.0
20260506021308 6 337 0.0 0.0 0.00 0.00 0.00 65 990.0
20260506015307 6 337 0.0 0.0 0.00 0.00 0.00 66 990.0
20260506013307 7 202 0.0 1.6 0.00 0.00 0.00 67 990.0
20260506011308 6 202 0.0 1.6 0.00 0.00 0.00 68 990.0
20260506005850 6 202 0.0 0.0 0.00 0.00 0.00 71 990.0
20260506005341 6 202 0.0 0.0 0.00 0.00 0.00 67 990.0
20260506005308 6 202 0.0 0.0 0.00 0.00 0.00 67 990.0
20260506003309 6 202 0.0 0.0 0.00 0.00 0.00 69 990.0
20260506001308 6 202 0.0 0.0 0.00 0.00 0.00 71 990.0
20260505235308 6 270 0.0 0.0 0.00 0.00 0.00 72 990.0
20260505233308 6 270 0.0 0.0 0.00 0.00 0.00 76 990.0
20260505231309 6 270 0.0 0.0 0.00 0.00 0.00 77 991.0
20260505225344 6 157 0.0 0.0 0.00 0.00 0.00 79 991.0
20260505225308 6 157 0.0 0.0 0.00 0.00 0.00 79 991.0
20260505223308 6 157 0.0 0.0 0.00 0.00 0.00 80 991.0
20260505221309 7 135 0.0 0.0 0.00 0.00 0.00 82 991.0
20260505215308 7 135 0.0 0.0 0.00 0.00 0.00 82 990.0
20260505213308 8 135 0.0 0.0 0.00 0.00 0.00 84 990.0
20260505211309 8 112 0.0 0.0 0.00 0.00 0.00 84 990.0
20260505205308 8 112 0.0 0.0 0.00 0.00 0.00 84 991.0
20260505203308 8 112 0.0 0.0 0.00 0.00 0.00 83 991.0
20260505201308 8 112 0.0 1.6 0.00 0.00 0.00 82 991.0
20260505195309 8 135 0.0 0.0 0.00 0.00 0.00 81 991.0
20260505193308 8 112 0.0 3.2 0.00 0.00 0.00 82 991.0
20260505191308 8 112 0.0 1.6 0.00 0.00 0.00 80 991.0
20260505185308 10 112 1.6 3.2 0.00 0.00 0.00 80 991.0
20260505183308 10 135 1.6 3.2 0.00 0.00 0.00 77 991.0
20260505181309 10 112 1.6 3.2 0.00 0.00 0.00 70 991.0
20260505175309 10 112 0.0 3.2 0.00 0.00 0.00 68 990.0
20260505173308 10 112 0.0 1.6 0.00 0.00 0.00 65 990.0
20260505171308 11 135 0.0 3.2 0.00 0.00 0.00 61 989.0
20260505165308 12 135 0.0 3.2 0.00 0.00 0.00 60 990.0